Location: Baix
(44.7118°N, 4.7648°E)
Time: 14:43:36
(UTC+00:00)

Explorer 11/Cluster Stage 4 - Pass Details

Date: 30 November 2020
Orbit: 467 x 1258 km, 28.8° (Epoch: 14 January)

Event Time Altitude Azimuth Distance (km) Brightness Sun altitude
Enters shadow 20:59:28 - 229° (SW) 3,952 10.4 -51.6°
Rises 20:59:29 0° 229° (SW) 3,951 - -51.6°
Reaches altitude 10° 21:03:33 10° 211° (SSW) 2,848 - -52.3°
Maximum altitude 21:07:38 17° 175° (S) 2,234 - -53.0°
Drops below altitude 10° 21:11:19 10° 137° (SE) 2,504 - -53.5°
Sets 21:14:34 0° 117° (ESE) 3,273 - -54.0°
